Find Starlink 4390

NORAD ID: 53653 Int'l Des: 2022-105 Owner: SPXS Country: US Constellation: starlink operational
LEOCIRCULARRETROGRADESSO

現在のビュー

3D地球を読み込み中...

About Starlink 4390

Starlink 4390 (NORAD 53653) is a starlink constellation satellite (v1.5) launched Aug 31, 2022 by SPXS of US. It operates in LEO, CIRCULAR, RETROGRADE, SSO orbit with a mass of 300.00 kg.

次回通過

Passes for default location (London). Set your location on the main map for personalized predictions.

高度履歴

Loading altitude history...

軌道要素

1 53653U 22105F 26265.85582745 .00497317 12957-3 51847-3 0 9993
2 53653 97.5869 157.5473 0002676 170.3047 189.8289 16.10538665223736
Epoch: Sep 22, 2026 • Age: 3 hours

現在のステータス

高度 249.2 km
遠地点 / 近地点 N/A
速度 7.76 km/s
衛星直下点 9.68°N, 161.12°E
打ち上げ日 Aug 31, 2022
運用期間 4 years
タイプ internet

技術仕様

分類 Payload
質量 300.00 kg
乾燥質量 290.00 kg
長さ 0.20 m
スパン 9.00 m
形状 ? Box + pan
製造者 SPXS
バスタイプ Starlink
フェーズステータス In Orbit
所有者/国 SPXS/US

Most Searched